Regional Weather Roundup
Issued by NWS

Home | Current Version | Previous Version | Text Only | Print | Product List | Glossary On
Versions: 1 2 3 4 5 6 7 8 9 10 11 12 13 14 15 16 17 18 19 20 21 22 23 24 25 26 27 28 29 30 31 32 33 34 35 36 37 38 39 40 41 42 43 44 45 46 47 48 49 50
000
ASUS45 KSLC 182010
RWRUT

UTAH REGIONAL WEATHER ROUNDUP
NATIONAL WEATHER SERVICE SALT LAKE CITY UT
100 PM MST SUN FEB 18 2018

UTZ001>011-023>025-182100-

NORTHERN UTAH

CITY           SKY/WX    TMP DP  RH WIND       PRES   REMARKS
BRIGHAM CITY   CLOUDY    33  32  94 NW3       29.61R
HILL AFB       CLOUDY    36  30  80 NW20      29.57R WCI  25
LOGAN          SNOW      34  30  85 N8        29.58F VSB 1/2 WCI  27
OGDEN          CLOUDY    37  30  75 N20       29.57R WCI  27
SALT LAKE CITY CLOUDY    48  35  60 NW26G32   29.54S
TOOELE VALLEY  CLOUDY    37  34  87 N24G31    29.58R WCI  26
WENDOVER       PTSUNNY   43  29  57 N12G28    29.55F
HEBER CITY       N/A     48  14  25 S9G21     29.49F
WEST JORDAN    CLOUDY    43  34  72 NW28G33   29.53F

$$

UTZ011>015-024>027-182100-

CENTRAL/NORTHEAST UTAH

CITY           SKY/WX    TMP DP  RH WIND       PRES   REMARKS
PROVO AIRPORT  PTSUNNY   54  22  28 SW26      29.52F
MOAB/CANYONLAN SUNNY     60  22  23 S28G36    29.60F
DELTA          MOSUNNY   54  18  24 S35G41    29.55F
PRICE          MOSUNNY   48  17  29 VRB3      29.59F
RICHFIELD      SUNNY     59  12  15 SW28G35   29.57F
ROOSEVELT      MOSUNNY   57  12  17 SW23G33   29.52F
VERNAL         SUNNY     56  14  19 S21G31    29.49F

$$

UTZ013>016-019>022-027-182100-

SOUTHERN UTAH

CITY           SKY/WX    TMP DP  RH WIND       PRES   REMARKS
BRYCE CANYON   SUNNY     45  18  34 S12G21    29.77F
CEDAR CITY     SUNNY     52  19  27 SW32G41   29.68F
MILFORD        PTSUNNY   55  19  24 SW38G55   29.61F HAZE
ST GEORGE      MOCLDY    57  34  41 VRB5      29.77F
HANKSVILLE     SUNNY     61  19  20 SW30G41   29.64F
KANAB          MOSUNNY   57  21  24 SW20G30   29.81F
BLANDING         N/A     51  24  34 S13G23    29.87F

$$

REGIONAL REPORTS     COLORADO/ARIZONA

CITY           SKY/WX    TMP DP  RH WIND       PRES   REMARKS
CRAIG, CO      MOSUNNY   48  22  35 SW20      29.54F
GRAND JUNCTION SUNNY     56  25  30 NW9       29.62F
RIFLE, CO      SUNNY     50  22  33 W17G25    29.60F
MONTROSE, CO   MOSUNNY   57  13  17 SW13G25   29.70F
CORTEZ, CO     SUNNY     54  18  24 SW17G24   29.82F
COLORADO CITY    N/A     59  23  25 W17G24    29.82F
PAGE, AZ       SUNNY     55  26  32 CALM      29.75F
GRAND CANYON   SUNNY     48  29  47 SW26G37   29.87F
KINGMAN, AZ    SUNNY     63  25  23 SW25G32   29.85F
FLAGSTAFF, AZ  MOSUNNY   44  30  57 SW25G33   29.90F

$$

REGIONAL REPORTS    NEVADA/IDAHO/WYOMING

CITY           SKY/WX    TMP DP  RH WIND       PRES   REMARKS
LAS VEGAS, NV  MOSUNNY   68  21  16 S17G29    29.73F
ELY, NY        SUNNY     51  10  19 S30G44    29.54F
ELKO, NV       LGT SNOW  33  31  92 SW9       29.59F FOG     WCI  25
POCATELLO, ID  CLOUDY    34  27  75 SW28G36   29.55R WCI  21
BURLEY, ID     CLOUDY    33  27  78 SW12      29.58F WCI  24
FORT BRIDGER,  CLOUDY    45  19  36 W29G45    29.51F
EVANSTON, WY   CLOUDY    37  24  59 W29G35    29.49F WCI  25
ROCK SPRINGS,  PTSUNNY   46  18  32 W33G41    29.45F

$$



USA.gov is the U.S. government's official web portal to all federal, state and local government web resources and services.